Wetbulb
57.62 57.60 57.69 57.58 57.49 57.71 57.86 58.16 58.16 58.48 58.31 57.95 58.34 58.67 58.69 59.26 59.19 56.47 49.79 52.70 55.12 64.45 70.85 63.48 62.16 57.88 55.39 57.59 66.48 68.87 59.38 56.40 58.06 58.92 61.26 65.11 63.48 66.22 66.76 64.80 65.05 66.10 64.90 66.11 68.58
57.29 57.41 57.01 56.75 57.23 57.40 57.51 57.72 57.81 57.52 57.26 57.15 57.92 58.17 58.62 59.35 55.30 52.02 58.52 63.43 67.00 67.11 61.71 54.77 55.44 54.58 51.04 55.20 58.59 63.30 56.63 57.61 62.44 62.85 62.90 64.16 64.09 64.29 63.09 64.39 65.32 63.92 66.06 68.44 69.41
56.60 56.66 56.51 56.46 56.48 56.62 56.93 56.85 56.89 56.99 57.56 57.05 57.60 58.12 58.39 58.32 50.23 52.70 65.87 67.09 68.22 69.06 57.61 54.59 55.73 55.27 51.23 56.21 60.07 61.67 58.09 60.25 62.52 64.73 66.17 63.67 62.94 65.19 61.80 60.64 62.68 62.20 63.91 67.62 67.66
56.64 56.51 56.32 56.39 56.61 56.56 56.58 56.49 56.69 56.61 56.79 57.31 56.78 57.90 58.54 54.15 43.89 59.03 72.11 67.83 71.12 65.23 55.54 52.91 52.02 52.37 52.56 52.74 61.80 58.51 61.88 62.44 63.79 65.77 64.46 63.07 64.38 60.98 62.51 63.89 65.79 65.93 66.24 67.21 67.22
56.12 56.01 55.97 55.93 56.01 56.03 56.07 56.20 56.20 56.18 56.19 56.64 57.24 57.85 54.72 49.63 49.52 59.35 72.12 69.04 66.85 57.30 53.55 52.00 52.53 55.14 51.78 55.86 62.51 60.93 62.88 62.55 65.11 64.62 64.26 64.69 63.71 64.69 63.54 67.40 68.75 66.76 66.35 66.53 66.96
55.87 55.76 55.84 55.86 55.84 56.03 56.08 56.13 55.89 55.87 56.11 56.50 57.03 57.68 51.23 42.35 55.98 64.58 64.54 61.71 56.17 52.74 52.29 53.55 57.82 59.34 56.72 56.81 57.39 61.35 62.94 63.17 64.35 64.78 64.76 63.39 63.57 63.57 64.55 67.63 67.07 65.38 64.18 65.72 67.32
56.16 56.14 56.05 56.01 56.05 56.08 55.92 55.80 55.59 55.46 55.83 56.23 56.95 56.18 51.82 47.38 59.04 61.96 58.15 53.75 52.66 50.37 52.01 53.92 58.28 58.88 57.06 52.65 56.81 57.34 58.20 62.51 62.83 64.74 63.81 63.88 59.24 60.93 64.74 66.14 64.72 64.37 63.81 63.68 66.38
56.32 55.95 56.22 56.02 56.12 55.81 55.42 55.03 54.77 55.63 56.14 56.79 57.38 53.64 45.38 57.45 56.63 54.95 57.52 53.20 53.58 49.84 52.52 59.03 60.39 59.29 55.63 53.98 52.59 50.73 57.14 54.29 61.84 63.95 64.61 63.19 54.98 60.76 64.29 64.91 64.03 64.01 63.90 63.66 66.62
55.74 56.36 55.90 55.33 55.15 55.02 54.51 55.05 55.87 57.02 57.25 58.53 51.32 48.14 46.79 60.19 54.58 55.81 57.39 55.01 52.40 50.23 52.58 60.00 58.66 54.28 50.99 47.08 44.00 45.78 43.28 53.57 59.26 64.40 63.30 61.45 55.16 61.89 64.86 64.68 63.92 64.29 63.15 63.07 66.21
56.46 55.63 55.27 55.00 54.79 54.52 54.74 55.10 55.30 55.86 58.21 57.62 55.27 47.72 50.93 52.01 52.33 55.22 57.16 56.47 52.15 51.17 52.14 51.80 51.33 45.23 44.86 42.67 38.05 41.67 44.58 50.47 55.50 60.99 61.13 58.32 57.66 61.34 63.66 64.15 64.77 64.29 62.86 62.01 64.85
56.15 55.67 55.05 55.20 55.38 54.27 51.57 50.97 50.12 49.92 50.97 45.45 47.19 51.19 54.73 54.12 54.92 53.36 57.69 53.96 51.81 49.68 45.96 50.27 43.89 41.16 44.72 45.34 46.74 46.25 46.18 55.35 58.75 61.61 59.01 57.49 56.45 59.61 62.05 63.43 64.14 62.51 60.94 61.76 64.85
55.48 55.00 54.87 54.35 54.78 53.65 49.37 47.66 52.66 50.78 44.89 52.82 51.92 53.67 56.31 51.89 49.86 52.55 57.31 51.78 49.62 46.45 48.51 45.06 41.50 47.09 49.08 48.88 47.41 46.30 46.42 54.38 57.79 60.60 58.93 58.60 58.30 61.84 62.64 63.35 63.43 61.93 60.29 61.80 63.67
55.40 54.76 54.52 53.92 53.99 48.97 48.25 50.93 56.35 53.74 43.57 47.73 51.39 50.51 51.03 51.77 50.32 50.85 54.00 51.07 48.71 46.24 46.47 42.76 46.69 50.97 49.55 47.33 45.96 44.83 43.39 53.65 54.34 57.45 58.73 57.58 55.12 57.96 61.07 63.60 63.41 63.25 61.91 63.26 63.02
55.58 55.09 54.59 53.33 49.16 49.71 49.76 53.34 53.51 53.21 36.87 43.05 45.40 51.46 51.86 52.02 49.83 57.17 54.47 51.13 48.25 46.41 47.09 46.02 50.35 49.94 47.88 46.57 46.29 39.42 47.84 55.88 56.08 53.67 50.84 56.57 44.94 53.50 57.05 59.94 62.02 63.05 62.48 62.20 62.93
55.47 55.55 54.25 52.39 46.82 46.55 51.72 51.92 55.18 47.23 29.77 48.74 47.32 54.21 49.10 49.69 51.46 52.09 56.22 51.46 46.39 47.43 45.93 44.36 46.69 46.66 46.21 47.43 48.36 45.38 49.55 54.28 55.98 51.29 51.93 53.16 48.42 49.31 56.79 58.12 60.86 62.95 63.29 64.16 64.30
55.38 54.84 53.42 50.16 48.15 50.67 52.85 53.54 48.81 37.56 33.26 46.45 48.34 45.77 45.34 48.71 49.52 52.98 52.39 52.21 52.17 48.61 47.95 46.99 50.45 47.81 47.13 49.61 49.69 50.54 54.18 53.37 51.72 48.48 42.98 49.27 49.68 50.84 54.06 58.36 60.82 62.86 63.07 64.85 65.60
54.10 52.98 51.30 54.03 48.89 52.46 53.11 48.66 38.45 36.02 47.82 45.46 44.95 46.83 44.29 44.34 47.91 49.67 48.24 45.29 43.02 38.27 38.57 46.12 47.18 49.13 49.62 45.58 47.33 47.56 42.75 36.55 39.86 43.59 41.27 50.33 49.04 50.19 57.60 61.17 62.52 63.31 64.45 65.12 65.16
52.45 51.59 50.14 53.18 51.55 52.63 50.78 44.21 35.68 44.29 43.34 48.01 47.87 46.61 42.42 45.13 44.84 48.10 46.34 43.44 46.16 43.77 39.94 38.97 39.25 46.41 49.69 46.61 43.75 43.33 43.63 38.02 35.64 37.42 40.62 50.26 46.27 51.69 58.87 60.38 62.13 63.52 63.40 64.43 64.88
51.19 47.81 48.88 52.75 54.01 52.01 45.47 36.11 36.82 42.77 46.97 46.43 45.11 41.40 41.46 46.82 45.47 45.78 45.45 44.30 45.90 44.97 39.80 38.81 41.06 50.35 50.09 50.08 48.00 43.16 41.25 45.50 40.98 39.51 41.74 46.40 49.99 55.07 59.36 58.91 60.32 59.43 63.43 64.40 64.31
47.64 48.99 49.68 55.38 55.57 50.37 43.16 38.87 41.30 47.94 49.81 46.62 40.60 43.37 41.03 43.74 43.51 42.63 43.86 46.72 47.14 49.23 46.23 43.58 39.30 45.34 49.92 49.10 48.88 46.27 47.91 44.60 40.63 35.52 34.97 43.83 45.74 47.16 53.82 59.78 61.85 59.95 62.15 63.75 62.80
49.93 47.91 53.18 56.14 53.64 47.19 38.87 39.39 45.48 49.94 50.24 44.25 42.42 41.12 40.85 42.67 44.64 43.50 44.57 46.44 48.47 46.70 47.84 42.55 41.17 42.98 46.19 43.34 43.54 45.72 43.69 43.08 42.01 39.57 37.12 39.70 43.25 57.62 58.39 60.54 60.99 62.86 63.30 62.19 62.28
47.93 44.33 55.89 52.48 44.99 42.56 40.59 43.99 48.04 45.64 47.52 45.32 45.49 43.11 42.80 43.91 42.91 44.17 43.68 44.60 48.71 46.33 44.56 44.81 40.13 36.99 41.91 47.33 48.75 47.44 44.67 42.61 39.51 37.90 43.84 42.39 47.54 59.56 58.91 59.63 60.70 61.28 61.86 63.35 63.95
45.96 47.14 51.23 51.25 39.18 39.60 42.27 45.12 44.76 45.53 44.68 45.23 43.46 43.88 44.58 41.76 40.92 45.38 46.79 49.49 48.58 46.55 41.63 44.55 38.97 37.02 39.47 41.72 45.01 42.40 43.34 40.62 41.16 42.25 39.94 39.80 45.59 59.34 59.50 59.08 60.22 60.53 61.84 62.51 62.48
47.08 41.12 44.66 44.39 41.17 41.22 39.87 40.62 41.02 47.01 46.67 46.19 42.91 44.00 40.75 42.17 42.55 43.87 45.47 48.73 49.43 46.55 56.54 50.12 38.27 39.02 36.78 37.54 41.68 40.46 43.43 43.13 39.87 37.71 41.16 44.15 50.26 55.49 56.91 57.29 59.05 59.27 59.64 59.88 61.63
48.44 41.80 42.74 38.83 41.04 40.84 41.54 42.32 43.00 42.38 45.53 45.85 44.57 45.17 41.98 37.76 43.08 42.34 45.10 46.54 48.71 52.36 47.50 44.77 37.90 38.94 41.22 44.23 43.62 43.13 43.72 44.18 40.93 43.94 40.93 48.63 50.57 55.37 56.93 56.08 55.57 56.46 56.55 56.52 56.91
46.63 46.53 48.17 42.98 42.34 42.39 40.74 38.43 42.71 43.56 43.74 41.91 43.86 45.93 44.84 41.46 42.25 39.94 41.19 42.24 42.98 47.43 44.04 42.98 38.33 40.69 39.87 44.47 43.89 42.01 44.62 47.50 49.19 51.21 50.08 50.99 50.48 56.13 55.90 55.41 54.20 54.63 54.46 54.07 54.86
52.20 51.41 49.21 45.72 40.01 39.09 38.80 41.99 45.20 46.37 45.65 47.20 46.73 44.28 42.87 44.12 45.44 42.98 45.06 43.43 42.90 41.79 41.97 41.59 39.25 39.20 36.54 41.49 40.73 37.13 41.71 45.17 50.03 51.40 51.88 48.20 51.80 55.19 53.96 53.73 52.99 53.55 53.71 53.42 52.86
MSLP
1017.42 1017.17 1016.94 1016.70 1016.45 1016.22 1016.03 1015.74 1015.58 1015.40 1015.08 1014.90 1014.73 1014.55 1014.37 1014.04 1013.53 1013.29 1012.34 1009.58 1009.71 1009.70 1009.67 1010.20 1010.84 1010.84 1011.03 1011.10 1011.18 1012.30 1011.16 1011.50 1010.89 1010.71 1010.87 1011.44 1011.53 1012.04 1012.34 1011.44 1011.29 1010.76 1011.54 1012.57 1013.64
1017.29 1017.00 1016.76 1016.54 1016.27 1016.02 1015.88 1015.74 1015.50 1015.37 1015.16 1014.88 1014.58 1014.38 1014.18 1013.90 1013.43 1012.03 1008.63 1008.66 1008.80 1009.27 1009.82 1009.95 1010.37 1010.74 1011.00 1010.85 1010.96 1011.54 1012.54 1011.47 1010.99 1010.84 1010.83 1011.15 1011.62 1012.80 1012.82 1012.26 1011.83 1011.59 1012.21 1012.79 1013.95
1017.14 1016.88 1016.62 1016.38 1016.11 1015.86 1015.62 1015.50 1015.41 1015.26 1015.06 1014.80 1014.56 1014.22 1014.00 1013.79 1012.96 1008.90 1006.70 1007.78 1008.40 1008.89 1009.26 1009.62 1009.96 1010.44 1010.84 1010.59 1010.10 1010.96 1010.95 1011.16 1010.29 1010.23 1010.16 1011.11 1012.36 1012.30 1012.48 1012.88 1012.71 1011.52 1012.01 1013.11 1013.90
1017.04 1016.72 1016.44 1016.20 1015.91 1015.65 1015.47 1015.23 1015.07 1015.02 1014.90 1014.68 1014.50 1014.13 1013.78 1013.67 1011.11 1006.89 1006.41 1007.13 1008.02 1008.62 1009.22 1009.46 1009.94 1010.28 1010.25 1010.06 1009.57 1010.30 1010.62 1010.21 1009.97 1009.92 1010.60 1010.93 1011.90 1012.64 1012.27 1011.73 1011.81 1011.62 1011.96 1012.90 1013.84
1016.78 1016.48 1016.18 1015.92 1015.70 1015.43 1015.22 1015.04 1014.87 1014.72 1014.70 1014.53 1014.30 1014.06 1013.58 1012.90 1009.62 1006.59 1006.35 1007.07 1007.94 1008.58 1008.86 1009.15 1009.45 1009.49 1009.47 1008.96 1009.18 1009.28 1009.58 1009.34 1010.04 1010.43 1010.42 1011.20 1011.70 1011.91 1012.14 1011.26 1011.32 1011.60 1012.20 1012.91 1013.67
1016.46 1016.14 1015.88 1015.62 1015.38 1015.17 1014.90 1014.66 1014.55 1014.46 1014.40 1014.24 1014.11 1014.02 1013.54 1011.51 1006.86 1006.48 1006.85 1007.52 1007.70 1008.28 1008.54 1008.79 1008.37 1008.51 1008.76 1008.21 1008.40 1007.72 1008.53 1009.40 1009.32 1009.77 1010.23 1011.04 1012.07 1012.14 1012.52 1012.15 1011.77 1011.71 1012.30 1012.94 1013.48
1016.21 1015.86 1015.52 1015.15 1014.95 1014.78 1014.56 1014.33 1014.18 1014.12 1014.10 1014.00 1013.86 1013.86 1012.87 1009.01 1006.67 1006.88 1007.08 1007.30 1007.42 1007.69 1008.02 1007.72 1007.90 1008.53 1008.14 1007.70 1007.04 1007.04 1007.96 1008.45 1009.31 1009.61 1010.40 1011.20 1012.62 1013.24 1013.22 1012.93 1012.00 1011.74 1012.18 1012.72 1013.40
1016.09 1015.71 1015.26 1014.94 1014.60 1014.36 1014.17 1014.06 1013.85 1013.70 1013.65 1013.63 1013.64 1013.54 1011.31 1007.10 1006.79 1007.23 1007.27 1007.28 1007.32 1007.53 1007.28 1007.18 1007.87 1008.20 1008.32 1007.29 1006.90 1007.12 1007.41 1008.21 1008.90 1009.75 1010.06 1010.42 1012.90 1013.48 1013.60 1013.38 1012.55 1012.01 1012.16 1012.57 1013.32
1015.71 1015.45 1015.12 1014.82 1014.48 1014.11 1013.76 1013.62 1013.31 1013.11 1013.14 1013.08 1013.52 1013.17 1009.64 1006.40 1006.58 1005.84 1006.33 1006.66 1007.00 1007.34 1007.28 1007.26 1007.64 1007.76 1007.44 1007.47 1007.73 1007.75 1007.74 1008.31 1008.86 1009.19 1009.29 1010.25 1012.84 1012.73 1013.29 1013.30 1013.02 1012.36 1012.27 1012.44 1013.04
1015.51 1015.10 1014.73 1014.54 1014.24 1013.94 1013.44 1013.04 1012.86 1012.85 1012.70 1012.89 1012.60 1012.42 1008.63 1006.29 1005.31 1005.29 1005.58 1006.06 1006.78 1007.17 1007.57 1007.47 1007.67 1007.69 1007.86 1008.38 1008.47 1008.23 1008.12 1008.04 1008.58 1009.76 1010.96 1011.24 1011.93 1012.23 1012.55 1012.96 1012.77 1012.34 1012.29 1012.53 1013.05
1015.20 1014.81 1014.52 1014.14 1014.07 1013.83 1013.39 1012.89 1012.86 1012.70 1012.25 1010.49 1009.76 1009.01 1007.11 1005.79 1005.05 1005.03 1005.24 1005.98 1006.64 1007.28 1007.69 1007.38 1008.08 1007.99 1007.90 1008.28 1008.12 1008.28 1008.78 1008.86 1009.48 1010.70 1011.40 1011.74 1012.34 1012.24 1012.68 1013.07 1012.71 1012.01 1012.14 1012.50 1012.96
1014.95 1014.63 1014.18 1013.91 1013.77 1013.62 1013.77 1012.99 1010.51 1010.00 1009.74 1008.44 1007.90 1007.36 1006.13 1005.94 1005.48 1004.91 1004.94 1006.03 1006.70 1007.28 1007.49 1007.94 1007.88 1007.54 1007.51 1007.73 1007.92 1008.13 1008.84 1009.70 1010.29 1010.88 1011.40 1012.23 1012.88 1013.04 1012.79 1012.47 1011.99 1011.66 1011.95 1012.30 1012.98
1014.61 1014.36 1013.96 1013.66 1013.51 1013.64 1012.72 1010.80 1008.38 1009.36 1009.44 1006.76 1006.43 1006.11 1005.43 1005.13 1005.13 1004.63 1005.00 1005.65 1006.33 1007.26 1007.56 1007.80 1006.99 1006.96 1007.35 1007.34 1007.60 1007.69 1008.26 1009.15 1009.62 1010.66 1012.32 1012.61 1012.24 1012.66 1012.74 1012.27 1011.79 1011.56 1011.85 1012.00 1012.57
1014.20 1014.02 1013.58 1013.30 1013.50 1012.33 1011.14 1008.15 1008.58 1009.13 1009.31 1006.96 1005.46 1004.26 1004.03 1004.10 1004.49 1004.13 1004.36 1005.26 1005.93 1006.76 1007.38 1007.27 1006.50 1006.74 1006.91 1006.92 1006.91 1007.09 1006.75 1007.92 1009.07 1010.36 1011.43 1012.26 1012.38 1012.06 1011.99 1011.93 1011.66 1011.46 1011.62 1011.82 1012.25
1013.79 1013.52 1013.38 1013.13 1012.86 1011.69 1008.69 1008.35 1008.12 1008.60 1008.72 1006.26 1004.79 1003.29 1003.36 1003.99 1003.84 1004.07 1004.10 1005.08 1005.72 1006.25 1006.97 1006.59 1006.06 1006.04 1006.07 1005.72 1005.88 1005.81 1006.01 1006.57 1008.25 1010.00 1011.14 1012.01 1012.22 1011.66 1011.52 1012.00 1011.67 1011.34 1011.25 1011.63 1011.78
1013.43 1013.03 1013.04 1012.96 1012.63 1009.63 1008.93 1008.53 1008.13 1009.23 1008.50 1006.56 1004.78 1004.19 1003.95 1004.06 1004.15 1004.13 1004.46 1004.93 1005.54 1006.37 1006.57 1006.22 1005.26 1005.27 1004.73 1004.37 1004.55 1004.83 1005.78 1007.09 1008.78 1010.31 1010.94 1010.79 1011.48 1011.36 1010.94 1010.34 1011.03 1011.08 1011.35 1011.50 1011.88
1013.26 1012.70 1012.87 1011.74 1010.18 1008.68 1008.86 1009.08 1009.66 1009.76 1008.58 1007.56 1006.66 1005.92 1005.09 1004.67 1004.53 1004.72 1005.14 1005.68 1006.28 1006.86 1006.83 1005.84 1005.09 1004.55 1004.24 1004.29 1004.10 1004.70 1006.43 1008.12 1009.97 1011.27 1010.54 1010.18 1011.04 1009.47 1009.36 1009.62 1009.58 1010.08 1011.23 1011.88 1012.74
1011.95 1012.27 1011.53 1010.42 1009.08 1009.13 1009.52 1010.08 1010.87 1010.50 1009.45 1007.99 1007.05 1005.74 1005.46 1005.16 1005.11 1005.28 1005.54 1006.06 1006.34 1006.96 1007.21 1006.42 1005.23 1004.06 1003.44 1003.49 1003.94 1004.82 1005.98 1007.58 1008.84 1009.82 1010.18 1010.13 1010.30 1009.24 1008.30 1009.49 1010.17 1010.74 1011.83 1012.72 1013.25
1010.94 1011.04 1010.99 1008.35 1008.81 1009.31 1010.10 1011.18 1011.60 1010.68 1009.63 1008.41 1007.26 1006.65 1006.08 1005.44 1005.50 1005.63 1005.86 1006.07 1005.91 1006.47 1007.26 1006.56 1005.40 1003.84 1003.15 1002.94 1003.42 1004.56 1005.66 1006.43 1007.90 1008.98 1010.12 1010.60 1010.32 1009.91 1009.75 1010.39 1010.90 1011.43 1012.17 1013.15 1013.75
1011.56 1010.84 1009.34 1007.31 1007.92 1009.38 1010.93 1012.19 1011.67 1010.42 1009.32 1008.79 1008.54 1008.09 1007.64 1007.00 1006.15 1005.84 1006.42 1006.77 1006.30 1006.28 1006.30 1006.42 1006.17 1004.78 1003.74 1003.12 1003.54 1004.18 1005.30 1006.82 1008.36 1009.86 1010.91 1011.42 1011.89 1012.18 1011.88 1011.84 1011.67 1012.42 1013.15 1013.99 1014.34
1011.65 1010.92 1008.03 1007.15 1007.91 1010.40 1012.15 1012.22 1011.03 1009.44 1008.90 1008.56 1008.54 1008.65 1008.64 1008.16 1007.53 1007.48 1007.59 1007.25 1006.76 1006.50 1006.35 1006.68 1006.78 1005.98 1004.81 1004.50 1004.70 1005.17 1006.05 1007.47 1008.61 1009.95 1011.10 1012.20 1013.55 1012.66 1012.94 1013.14 1013.24 1013.48 1013.91 1014.41 1014.96
1011.86 1011.04 1008.09 1007.83 1009.15 1011.36 1012.17 1011.47 1010.18 1009.20 1008.41 1008.29 1008.43 1008.85 1008.96 1008.90 1008.50 1008.09 1008.17 1007.64 1007.01 1006.83 1007.40 1007.68 1007.88 1007.56 1006.48 1005.38 1004.90 1005.23 1006.24 1007.58 1009.26 1010.56 1011.63 1012.64 1014.26 1013.90 1013.80 1014.13 1014.11 1014.19 1014.29 1014.86 1015.53
1012.46 1011.04 1008.73 1008.71 1009.99 1011.48 1011.15 1010.55 1009.77 1009.27 1009.02 1008.90 1009.03 1009.11 1009.28 1009.26 1009.16 1008.78 1008.37 1007.67 1007.44 1007.64 1008.27 1008.24 1008.79 1008.44 1007.53 1006.57 1005.98 1006.12 1006.67 1007.47 1008.70 1009.97 1011.31 1012.70 1014.74 1014.74 1014.54 1015.23 1015.40 1014.51 1014.90 1015.64 1016.06
1012.74 1011.68 1010.06 1009.65 1010.13 1010.40 1010.82 1010.60 1009.95 1009.25 1009.18 1009.13 1009.18 1009.17 1009.60 1009.74 1009.76 1009.73 1009.11 1008.14 1007.87 1008.08 1008.27 1008.56 1009.83 1009.70 1009.72 1008.87 1008.16 1007.55 1007.18 1007.42 1008.56 1010.24 1011.48 1012.85 1014.12 1015.07 1015.28 1015.27 1015.56 1016.24 1016.11 1016.66 1016.75
1012.24 1012.05 1011.25 1011.22 1011.06 1011.10 1010.84 1010.92 1010.57 1010.21 1009.87 1009.72 1009.80 1009.55 1009.77 1010.62 1010.48 1010.72 1010.14 1009.42 1008.68 1008.82 1008.85 1009.38 1010.56 1010.37 1009.81 1009.21 1008.58 1008.36 1007.84 1007.67 1008.50 1009.36 1010.59 1013.03 1013.43 1014.81 1015.33 1015.96 1016.57 1015.42 1017.42 1017.44 1017.46
1012.53 1012.34 1011.59 1011.43 1011.35 1011.29 1011.21 1011.23 1010.94 1010.80 1010.72 1011.03 1011.14 1011.02 1010.62 1011.40 1011.65 1011.52 1011.19 1010.97 1010.67 1010.04 1010.10 1010.50 1010.98 1010.94 1010.94 1010.08 1009.47 1008.99 1008.27 1007.72 1008.27 1009.94 1011.18 1012.51 1013.74 1014.65 1015.56 1015.92 1016.62 1017.11 1017.42 1018.26 1018.74
1012.70 1011.98 1012.17 1012.16 1011.90 1011.70 1011.76 1011.51 1011.32 1010.97 1011.34 1011.38 1011.66 1011.67 1011.66 1011.74 1011.67 1011.50 1011.59 1011.66 1011.37 1011.32 1011.35 1011.62 1011.90 1012.26 1012.45 1011.48 1010.37 1010.00 1009.63 1009.22 1009.02 1009.61 1010.46 1012.30 1013.40 1014.48 1015.77 1016.34 1017.15 1017.64 1018.22 1018.94 1019.12
Wind_Speed
13 13 13 12 12 12 12 12 12 11 10 11 12 13 13 13 12 1 8 12 10 9 4 6 5 4 2 3 5 4 4 5 2 4 6 13 11 5 3 11 12 2 17 23 23
13 13 13 13 14 13 12 13 12 11 11 11 11 12 13 13 3 9 14 14 13 15 5 7 6 6 3 4 3 6 1 4 6 11 6 11 15 13 4 6 5 15 15 22 26
13 13 13 13 13 13 13 13 13 13 12 12 12 12 12 10 4 10 10 20 17 13 7 6 2 5 4 3 6 7 6 5 9 10 10 13 14 9 15 3 8 21 19 25 24
15 15 14 14 14 14 14 13 12 13 13 13 11 11 11 2 3 3 8 22 14 10 7 5 5 5 6 7 7 7 7 7 5 4 7 12 14 14 10 9 14 16 17 22 23
15 15 15 15 14 14 15 14 13 13 13 12 12 10 3 1 12 3 6 20 10 9 8 7 7 6 6 6 8 5 10 9 3 4 10 13 14 11 12 9 6 17 15 20 21
16 15 15 15 15 15 15 15 14 13 13 11 9 7 2 3 8 9 10 13 8 8 7 7 8 8 7 8 7 8 11 10 15 9 13 13 9 3 11 7 9 20 14 17 21
16 16 16 16 16 16 16 15 14 13 12 9 4 4 3 14 0 5 8 7 5 8 7 14 8 2 4 7 6 11 9 9 13 10 9 15 8 7 3 5 13 18 11 9 19
15 17 15 15 14 15 15 15 14 11 9 6 3 3 10 6 9 7 5 4 7 7 6 1 6 6 6 7 7 2 1 7 9 13 13 6 5 3 7 6 6 16 12 8 19
16 15 15 15 15 14 13 14 14 9 6 4 3 2 12 10 6 10 10 7 7 5 6 7 1 7 2 2 6 4 4 7 9 20 11 5 11 13 14 10 8 12 14 9 20
14 15 15 14 14 14 14 17 6 5 2 7 6 3 7 4 4 7 9 8 5 3 2 3 3 0 4 5 4 4 1 2 7 10 7 8 8 19 18 14 11 13 13 8 20
14 14 15 12 10 9 8 3 4 2 3 10 9 7 8 2 3 4 6 6 4 4 5 4 5 5 8 6 7 3 5 4 6 9 7 7 14 20 17 13 15 14 10 10 17
15 16 15 13 8 6 1 2 8 3 9 17 15 12 12 2 4 7 8 7 5 7 2 6 5 9 6 7 6 5 3 5 8 7 9 5 14 19 19 22 18 14 10 14 13
15 14 14 14 8 2 4 9 7 9 4 9 7 7 7 9 7 11 11 6 5 5 5 6 7 9 6 7 8 8 6 9 6 9 4 6 3 4 3 9 12 12 9 16 18
16 15 13 14 3 2 6 9 4 6 5 8 3 7 5 8 5 8 8 6 3 10 6 7 7 5 7 8 8 7 9 13 18 8 6 6 4 5 8 9 13 15 11 15 14
17 12 8 3 4 2 9 8 9 5 5 7 2 4 2 7 8 4 7 3 6 6 7 10 6 7 7 13 8 11 6 10 17 5 8 2 3 2 9 9 14 8 12 12 17
14 12 11 3 3 10 9 11 4 7 2 8 2 5 2 1 0 5 6 3 2 2 5 9 6 7 10 9 10 7 4 8 7 4 2 11 6 5 10 18 21 11 10 13 12
14 11 6 4 6 2 5 5 7 4 9 7 4 5 7 4 2 6 6 5 5 3 4 5 7 10 6 6 4 5 7 2 2 1 8 13 4 7 11 16 22 17 11 9 10
20 15 7 6 3 5 5 6 7 3 5 4 6 17 7 7 6 9 6 4 5 5 3 3 7 5 3 8 7 3 9 7 6 6 2 10 7 8 12 9 5 7 8 7 9
22 2 3 7 8 3 6 7 3 3 5 6 16 6 6 4 3 7 10 8 6 7 6 3 5 6 3 5 10 3 2 7 3 1 4 4 2 7 9 4 8 7 8 10 10
3 3 5 3 8 6 8 2 4 5 3 2 6 7 7 8 5 6 5 6 6 3 5 5 3 3 5 1 3 7 4 3 4 1 3 4 5 2 4 6 6 7 7 9 13
2 4 6 7 7 7 5 5 5 9 6 1 4 6 1 4 4 5 8 4 8 8 6 4 3 8 4 1 6 4 3 6 5 5 4 5 2 3 9 10 8 9 8 8 9
2 2 6 2 6 2 3 6 7 6 9 4 3 5 4 4 6 6 4 2 8 4 4 1 4 1 7 5 4 5 5 5 6 3 3 5 2 6 13 12 10 9 13 11 11
2 3 4 5 2 1 4 4 3 6 5 6 4 4 0 2 5 6 4 4 8 6 2 5 4 3 9 9 9 5 4 6 5 3 4 7 3 7 14 11 8 13 12 9 10
2 4 6 5 1 6 5 3 1 5 5 3 3 3 3 6 4 4 8 5 3 3 3 3 4 4 3 6 3 5 9 1 7 4 4 3 17 11 14 18 14 7 10 10 9
2 2 4 2 5 4 7 3 9 6 8 10 8 5 4 4 5 7 6 7 5 9 5 4 3 4 4 7 2 5 10 7 3 5 6 14 18 13 15 15 13 20 13 13 13
3 4 6 3 3 9 6 4 6 5 5 5 8 11 10 6 3 3 3 6 1 8 6 6 3 6 7 6 7 5 15 7 7 9 13 17 13 16 18 16 15 15 15 13 13
4 3 5 6 2 6 2 5 6 2 6 7 5 5 8 5 2 2 3 3 5 3 5 4 3 4 3 7 5 7 7 6 3 3 18 12 20 23 20 19 16 15 13 11 12
Wind_Direction
336 335 335 336 334 334 333 332 333 332 333 332 330 328 328 323 310 164 241 220 185 221 106 139 200 211 173 255 198 90 350 329 304 168 114 142 117 37 303 130 142 79 137 147 144
333 333 333 331 330 330 330 328 327 326 325 324 325 327 327 326 281 242 234 214 213 185 174 166 183 169 185 212 212 142 277 253 329 319 169 126 123 143 96 40 39 126 129 136 136
329 327 325 322 320 319 320 321 321 321 320 321 322 324 327 325 304 249 224 203 197 177 201 178 197 166 193 180 214 152 165 202 275 283 160 129 135 136 132 140 232 158 148 142 146
327 325 323 319 317 315 314 314 315 316 317 318 320 320 321 299 233 281 309 185 179 161 163 183 184 189 198 199 182 124 236 223 303 353 110 125 139 137 154 196 189 172 152 143 150
326 324 321 318 316 314 311 310 311 311 312 313 314 317 350 342 252 265 46 161 149 153 189 185 185 190 189 196 151 222 172 216 81 306 129 150 127 137 163 167 165 165 150 151 158
326 323 321 316 313 311 307 307 308 308 307 309 311 303 183 257 244 156 128 148 161 159 190 186 208 207 281 220 207 207 186 176 189 166 150 114 75 132 181 177 187 167 167 165 159
325 321 317 313 312 309 306 304 304 303 302 296 298 256 271 239 290 118 140 178 175 171 168 216 224 257 355 302 236 249 145 158 190 161 133 118 45 28 165 241 183 170 173 155 161
321 324 319 315 312 309 305 301 300 297 291 269 246 253 247 242 248 257 221 213 200 216 228 132 208 270 198 269 350 140 291 150 154 175 166 110 167 284 250 237 194 178 177 176 160
326 323 321 320 317 312 304 294 291 290 258 194 140 178 266 301 173 222 171 192 187 240 255 255 182 214 324 40 10 12 197 122 162 190 164 160 165 187 197 225 228 204 183 178 156
326 328 326 324 321 315 307 291 262 316 157 158 253 349 272 259 225 162 191 169 175 173 331 212 171 9 44 75 213 234 25 125 157 149 37 122 145 170 193 208 222 205 185 154 157
331 329 326 324 315 321 344 5 26 18 255 195 194 238 279 269 307 242 176 142 148 110 179 205 99 201 232 192 230 296 356 61 90 100 130 112 146 187 192 206 226 188 182 156 160
334 331 327 326 312 340 325 231 224 143 294 228 233 237 267 336 246 243 121 147 150 198 186 23 193 217 228 251 263 267 134 103 74 98 59 150 143 181 204 210 209 178 172 157 155
334 330 327 321 318 271 199 230 244 48 309 292 192 208 229 149 219 221 142 176 152 184 178 166 232 205 204 259 272 259 167 182 152 109 27 264 73 138 286 210 198 185 170 167 157
331 327 327 318 331 290 249 253 265 148 35 284 191 268 203 178 191 191 176 140 141 193 196 222 250 208 216 245 205 257 211 168 146 132 170 221 218 228 170 250 191 193 174 175 167
331 319 315 304 280 242 244 345 320 76 24 338 224 254 92 142 155 216 186 114 177 201 115 240 218 200 203 227 200 238 202 182 165 124 117 262 115 263 144 195 206 201 174 164 178
314 308 319 158 234 245 331 311 32 49 302 314 111 304 80 151 175 167 159 105 103 256 281 245 250 174 214 238 221 231 86 65 56 58 76 194 159 210 182 176 205 197 200 165 167
313 293 288 296 241 41 350 15 47 52 339 339 356 336 277 234 257 151 167 170 162 129 287 299 249 248 207 251 349 105 74 78 86 256 229 159 177 244 184 180 195 177 170 136 84
315 306 228 226 256 21 39 55 67 317 265 277 282 308 202 185 227 166 164 193 219 117 336 213 316 186 217 174 178 140 141 154 183 172 182 151 202 267 193 169 139 137 135 101 86
313 96 238 253 189 141 74 55 200 231 259 316 321 9 355 346 191 140 180 195 209 152 193 16 271 324 190 194 128 254 95 195 97 88 94 184 17 28 61 75 133 108 114 148 121
345 1 267 176 141 67 70 244 246 225 262 282 29 20 25 341 31 121 141 345 3 30 173 233 247 276 289 102 32 133 170 67 19 245 127 347 64 308 81 77 57 126 142 132 116
16 26 270 144 73 54 107 229 277 258 216 11 37 37 354 357 55 21 17 15 13 324 54 42 98 296 29 137 169 35 56 58 111 118 159 140 4 287 104 92 87 82 111 99 88
8 359 223 3 55 85 139 201 239 359 15 351 78 76 10 8 33 50 43 51 348 339 31 32 133 274 234 276 224 141 139 112 116 273 93 105 81 91 100 88 88 81 90 92 79
338 277 290 73 83 273 259 256 73 32 12 17 24 58 331 327 72 23 340 49 42 45 40 319 10 26 352 358 359 35 31 128 114 88 194 121 173 132 106 92 74 88 79 86 91
95 14 327 49 210 98 92 345 33 32 6 36 344 66 86 9 39 47 346 2 44 84 244 75 60 111 153 217 214 353 354 67 112 111 158 91 140 162 143 136 120 73 83 96 107
58 269 199 316 333 46 80 51 48 16 0 8 16 335 134 80 18 11 348 345 4 357 10 91 86 27 345 359 41 43 359 334 131 177 131 165 142 152 141 132 129 120 108 88 88
72 40 356 312 360 71 36 1 71 18 50 6 52 26 51 66 104 182 7 37 298 326 22 355 356 47 7 360 37 48 16 26 106 113 77 120 102 137 130 123 120 114 113 103 95
313 331 101 299 31 83 357 47 37 60 31 83 64 69 28 354 274 249 205 218 232 346 15 43 68 53 333 339 3 27 342 12 42 60 135 127 143 139 137 132 131 126 119 119 109